Location: Caltech
(34.1382°N, 118.1253°W)
Time: 12:12:39
(UTC-07:00)

SL-16 R/B - Visible Passes

Search period start: 28 August 2015 00:00
Search period end: 07 September 2015 00:00
Orbit: 843 x 846 km, 71.0° (Epoch: 27 August)

Date Brightness Start Highest point End Pass type
(mag) Time Alt. Az. Time Alt. Az. Time Alt. Az.
28 Aug 4.9 01:34:22 14° NNE 01:34:22 14° NNE 01:35:02 10° NNE visible
28 Aug 4.7 03:16:14 10° NNW 03:16:14 10° NNW 03:16:29 10° NNW visible
29 Aug 5.0 01:20:29 12° NNE 01:20:29 12° NNE 01:20:49 10° NNE visible
29 Aug 4.8 03:02:22 10° NNW 03:02:22 10° NNW 03:02:26 10° NNW visible
